Temperature
7 6 6 7 7 8 8 8 8 9 11 10 10 10 11 12 12 12 12 13 13 14 15 14 14 15 15 15 15 15 14 14 14 14 14 14 14 14 13 13 13 13 13 13
5 6 7 8 8 8 8 8 8 9 10 10 10 10 10 11 11 12 13 13 13 14 14 14 14 14 14 14 14 14 14 14 14 14 14 14 14 14 13 13 13 13 13 13
5 6 8 8 8 8 8 8 8 8 9 10 9 9 10 11 12 12 13 13 13 13 14 14 14 14 14 14 14 14 14 14 14 14 13 13 13 13 13 13 12 12 12 12
6 7 7 7 8 8 7 8 9 9 8 8 9 8 9 10 10 11 11 12 12 13 13 14 14 14 14 14 14 14 14 14 14 13 13 13 13 13 13 13 12 12 12 12
5 6 7 7 8 8 7 9 8 8 8 7 8 8 8 9 9 10 9 11 11 12 12 13 13 14 14 14 14 14 14 14 14 13 13 13 13 13 13 12 12 12 12 11
5 6 6 7 8 8 8 8 7 7 7 7 7 8 8 8 9 9 9 10 11 11 12 12 13 13 14 14 13 14 14 14 13 13 13 13 13 12 12 12 12 11 11 11
4 6 6 7 7 7 7 6 6 6 6 6 7 8 8 8 8 8 8 9 10 11 11 12 12 12 13 13 13 13 13 13 13 13 13 12 12 12 12 12 12 11 11 11
3 4 5 6 6 6 6 6 6 6 6 6 7 7 7 7 7 8 9 9 9 10 11 11 11 12 12 12 12 13 12 12 12 12 12 12 12 12 11 11 11 11 11 11
3 4 6 6 6 6 6 6 6 5 5 5 6 6 7 7 7 7 7 7 8 9 10 10 11 11 11 12 12 12 12 12 12 12 12 11 11 11 11 11 10 10 10 10
3 3 4 5 6 6 6 6 5 5 5 6 6 6 6 6 6 6 6 6 7 8 9 9 10 10 10 11 11 11 11 11 11 11 11 11 11 10 10 10 10 10 10 10
3 3 3 4 5 5 5 5 5 5 5 5 6 6 6 5 5 5 5 6 6 7 8 8 9 9 9 10 10 10 10 10 10 10 10 10 10 10 10 10 9 9 9 9
2 2 2 3 4 5 5 4 4 4 4 4 4 5 5 4 4 4 4 5 5 6 6 7 8 8 8 9 9 9 9 9 10 10 10 9 9 9 9 9 9 9 9 8
2 2 2 3 4 4 4 4 4 4 3 3 4 4 4 4 4 4 4 4 4 4 5 6 6 7 7 7 7 8 8 8 9 9 9 9 9 9 8 8 8 8 8 8
3 1 1 2 3 2 2 3 3 3 3 3 3 4 4 4 3 3 3 3 3 4 4 5 5 6 6 6 6 6 7 7 7 8 8 8 8 8 8 7 7 7 7 7
1 0 1 1 2 2 2 2 3 3 3 3 3 3 3 3 3 3 3 3 3 3 3 4 4 4 5 5 5 5 6 6 6 7 7 7 7 7 7 6 6 6 6 6
-0 0 1 1 2 2 2 2 2 2 2 2 2 2 2 2 2 2 2 2 2 2 2 3 3 4 4 4 4 5 5 5 5 6 6 6 6 6 6 6 6 6 6 6
-1 -0 -0 0 1 2 1 1 1 2 2 2 2 2 2 2 1 1 2 2 2 2 2 2 3 3 3 4 4 4 4 4 4 4 5 5 5 5 5 5 5 5 5 5
-1 -1 -1 -1 0 0 1 1 1 1 1 1 1 1 1 1 1 2 2 1 2 2 2 2 2 2 3 3 3 3 3 4 4 4 4 4 4 4 4 4 4 4 4 4
-1 -1 -1 -2 -1 -1 1 1 0 1 1 0 1 1 1 1 1 1 1 1 1 1 1 1 1 2 2 2 2 3 3 3 3 3 3 3 3 3 3 4 4 4 4 3
-1 -1 -2 -2 -1 -1 0 0 1 0 0 -0 -0 0 0 0 -0 -0 1 1 1 1 1 1 1 1 1 1 2 2 2 2 2 3 3 2 2 3 3 3 3 3 3 3
-2 -2 -2 -3 -2 -1 -1 -0 1 0 -0 -0 -0 -0 -0 -1 -1 -0 -0 0 0 0 0 1 1 1 1 1 1 1 2 2 2 2 2 2 2 2 2 2 2 2 2 2
-3 -3 -3 -3 -2 -2 -1 -1 -1 -1 -0 -0 -1 -1 -1 -1 -1 -1 -1 -1 -0 -0 -0 -0 0 0 0 0 0 0 1 1 1 1 1 1 1 1 1 1 1 1 1 1
-3 -3 -3 -3 -2 -1 -1 -1 -1 -1 -1 -1 -1 -1 -1 -1 -2 -2 -1 -1 -1 -1 -1 -1 -1 -1 -1 -0 -0 0 0 0 0 0 0 0 1 1 1 1 1 0 0 0
-4 -3 -3 -3 -3 -2 -1 -1 -1 -1 -1 -1 -1 -2 -2 -2 -2 -2 -2 -2 -2 -2 -2 -1 -1 -1 -1 -1 -1 -1 -1 -1 -0 -0 -0 -0 -0 -0 -0 -0 -0 -0 -0 -0
-4 -4 -4 -4 -3 -2 -2 -1 -1 -2 -2 -2 -2 -2 -2 -2 -3 -3 -3 -3 -2 -2 -2 -2 -2 -2 -2 -2 -2 -1 -1 -1 -1 -1 -1 -1 -1 -1 -1 -1 -1 -1 -1 -1
-5 -4 -4 -3 -3 -3 -2 -2 -2 -2 -2 -2 -3 -3 -3 -3 -3 -3 -3 -3 -3 -3 -3 -3 -2 -2 -2 -2 -2 -2 -2 -2 -2 -2 -2 -2 -2 -2 -2 -2 -2 -2 -2 -2
Wind_Speed
1 2 5 7 8 5 4 4 6 8 5 4 8 10 10 7 6 8 8 9 9 10 8 7 8 9 9 9 10 11 12 11 10 8 7 7 6 5 4 5 8 10 10 10
1 5 7 5 6 4 3 4 6 6 4 4 6 10 9 7 7 9 10 11 11 8 5 7 8 8 10 11 11 11 12 12 10 8 7 5 5 4 4 4 6 9 9 10
4 4 3 4 5 5 5 6 5 4 4 2 2 6 7 6 6 7 8 9 9 10 10 10 9 9 10 11 12 12 12 11 10 9 7 6 4 3 3 3 3 5 9 9
3 3 2 3 5 4 6 5 4 4 1 3 3 4 7 5 6 7 7 6 7 8 8 9 10 10 10 11 10 11 11 11 11 11 10 11 8 7 6 5 4 5 7 8
3 2 2 4 6 4 5 4 4 4 3 2 2 3 7 3 5 7 6 5 5 6 7 8 9 10 10 10 9 10 10 10 10 10 11 11 7 5 4 5 5 4 4 6
3 2 2 4 5 4 2 1 2 1 2 4 5 5 5 3 5 6 5 3 4 5 5 6 5 5 6 7 8 9 10 10 10 10 10 10 10 9 8 7 6 5 3 3
4 3 3 1 1 1 2 3 1 0 2 5 4 4 6 5 4 4 3 2 2 3 5 4 4 3 5 7 8 9 11 10 10 10 10 10 10 10 11 9 8 6 4 3
1 4 3 1 2 3 3 5 5 4 4 3 1 5 4 4 4 3 2 1 1 1 2 3 4 4 4 6 7 8 9 9 10 10 9 8 9 7 7 7 7 6 5 4
1 4 3 2 2 2 2 3 4 3 1 2 4 4 4 6 7 7 6 6 5 2 2 2 2 3 3 5 6 8 8 8 8 9 8 8 7 7 7 6 5 4 4 4
2 4 5 3 1 1 2 3 2 3 3 3 3 3 3 6 6 6 6 5 4 4 3 2 1 1 2 3 4 5 7 7 6 6 7 7 7 7 7 6 6 5 5 5
1 2 4 2 1 2 1 1 1 2 2 3 3 3 2 3 4 3 4 4 4 4 3 2 2 2 3 4 4 4 5 5 5 5 6 6 6 6 6 6 6 5 5 5
2 1 2 3 3 0 2 1 2 2 2 1 2 4 4 2 3 3 4 5 5 5 5 5 4 4 4 4 4 4 4 4 4 5 6 6 6 6 6 5 5 5 5 4
2 1 1 4 3 4 2 2 1 1 1 1 2 4 5 4 5 5 5 6 6 6 6 6 6 5 4 3 3 3 4 4 4 5 6 6 5 5 5 5 5 4 4 4
2 1 2 4 4 1 3 4 1 1 1 2 4 5 6 7 6 6 5 5 4 5 5 6 5 5 4 3 2 3 3 4 5 5 6 6 5 5 4 4 4 4 4 4
2 0 2 4 4 1 3 4 2 2 3 4 5 5 6 6 5 5 4 4 4 5 5 4 4 4 4 3 3 3 3 3 5 5 5 4 4 5 5 4 3 3 3 3
2 1 2 3 2 1 3 5 4 4 3 3 4 6 5 5 3 4 3 3 3 3 4 4 4 4 3 2 2 2 3 3 4 5 5 4 5 5 4 4 3 3 3 2
1 0 1 3 4 3 4 5 4 3 3 4 5 6 3 3 4 3 3 2 2 2 3 2 2 2 2 2 2 2 2 3 5 5 5 4 5 4 4 3 4 3 2 2
2 1 1 1 3 2 5 3 2 3 3 2 3 3 2 2 3 3 2 2 3 3 2 1 1 1 2 2 2 3 4 4 5 5 4 4 4 4 3 4 3 2 2 2
3 3 1 1 1 5 5 3 2 2 3 3 2 3 4 3 3 4 4 3 3 2 2 1 0 0 1 2 3 4 4 4 4 4 3 3 4 4 3 3 2 2 2 2
2 2 2 2 2 4 5 5 4 0 3 3 2 2 3 2 2 4 5 5 4 3 2 2 1 2 2 2 3 4 3 3 3 3 3 3 3 3 3 2 2 2 2 1
2 1 2 3 3 5 5 6 2 2 4 3 2 2 2 2 3 4 4 4 4 3 3 2 2 2 2 2 3 4 3 2 1 2 3 3 3 3 3 2 2 2 2 2
3 2 2 2 3 6 4 1 2 4 3 2 2 1 1 2 2 2 3 3 4 4 3 3 3 3 3 2 3 3 2 1 2 3 3 3 2 2 2 3 2 2 2 2
4 5 4 5 5 4 2 2 3 2 2 3 2 2 1 1 1 2 2 2 3 3 3 2 2 3 3 3 2 2 1 2 2 3 3 2 2 2 2 2 2 1 1 1
3 2 2 3 6 5 5 4 3 2 3 3 2 2 2 2 2 2 2 2 2 3 2 2 2 3 3 3 3 2 1 2 2 3 2 2 2 2 2 1 1 1 1 1
5 2 3 5 6 5 5 4 3 3 2 2 3 2 2 2 2 2 2 2 2 2 2 1 1 1 2 2 2 2 2 2 2 2 2 2 1 1 1 1 0 0 1 2
4 5 5 7 6 5 6 4 3 3 3 3 2 2 2 2 2 2 2 2 2 2 2 1 1 1 1 2 2 2 2 2 2 2 1 1 1 1 0 0 1 1 1 2
Wind_Direction
113 146 212 218 206 213 204 214 243 248 241 217 234 252 262 255 232 231 230 225 221 221 216 199 188 176 168 166 165 167 165 165 160 158 158 159 164 162 157 155 155 155 152 150
91 231 234 236 228 226 227 231 245 264 257 224 241 257 260 253 235 224 221 222 221 217 206 194 186 179 174 172 171 169 167 167 168 169 166 162 155 156 156 149 149 156 153 152
205 236 228 232 229 223 241 223 228 247 304 262 229 275 258 268 255 245 227 217 211 205 199 193 186 185 178 177 178 176 173 169 166 159 147 135 120 113 130 151 160 158 156 152
251 254 213 226 228 212 241 230 231 240 239 254 176 250 265 251 262 257 246 228 212 208 200 191 187 185 186 188 183 176 172 168 165 160 160 161 165 171 181 175 168 158 155 154
260 245 221 235 235 221 235 246 239 233 208 270 219 208 279 276 260 265 256 238 220 208 197 192 192 191 187 183 180 176 170 169 167 166 166 166 167 169 154 150 149 154 151 153
272 280 230 239 252 223 246 27 28 43 124 236 218 194 274 263 247 266 265 251 221 207 197 187 182 177 177 175 173 172 168 170 168 166 166 169 167 163 158 163 166 166 163 157
321 298 291 275 284 275 111 108 94 276 221 238 191 192 251 287 290 263 260 254 220 195 183 166 157 158 167 170 173 173 170 171 171 170 171 175 173 171 173 174 174 171 172 176
339 288 276 265 214 225 212 166 169 192 211 260 194 221 257 319 338 348 359 20 57 83 147 156 163 167 172 176 172 170 172 172 172 174 176 175 172 174 178 175 172 175 180 183
283 271 291 276 260 170 180 200 195 162 216 219 241 273 301 347 2 14 19 25 29 32 77 126 135 138 152 166 168 167 166 166 169 173 169 168 168 167 166 161 160 162 166 162
238 270 297 300 4 339 177 176 126 146 167 225 253 242 275 322 332 356 9 9 3 21 37 35 60 100 126 147 147 147 152 159 160 159 165 164 163 161 157 151 156 161 164 159
281 245 306 343 191 223 66 164 160 168 171 174 208 253 306 297 310 335 348 360 8 24 32 30 32 57 80 97 108 118 130 132 141 148 147 144 150 151 153 157 162 163 158 160
312 164 277 277 288 259 139 184 163 170 235 202 180 264 333 346 3 22 13 10 18 26 27 28 37 54 68 83 100 110 116 124 134 137 137 140 140 142 146 154 160 157 156 159
355 54 353 341 344 11 32 3 33 98 121 193 200 263 338 4 13 19 20 15 19 26 30 31 35 45 53 66 89 104 108 112 113 122 127 127 131 134 141 149 149 148 149 151
19 74 184 213 239 283 294 307 324 105 179 222 234 259 314 338 348 353 7 13 16 23 27 31 31 32 37 51 75 99 99 106 111 112 118 121 123 125 132 136 140 143 148 154
55 303 250 258 263 267 303 299 300 245 209 209 244 258 287 308 314 323 344 3 14 18 20 29 29 24 28 40 55 81 89 95 108 109 110 115 115 112 108 108 117 129 140 144
23 274 299 294 279 287 324 316 282 254 240 225 254 279 292 311 331 342 339 354 8 1 2 12 24 21 16 40 69 87 91 94 108 112 110 107 106 104 103 105 107 104 104 117
306 56 354 293 316 345 303 282 251 225 221 211 240 260 296 335 336 322 323 349 336 331 347 2 7 10 8 30 87 102 106 102 104 105 104 102 104 101 98 101 97 96 86 80
204 168 172 315 22 247 249 287 259 236 255 240 247 283 305 306 309 315 327 336 332 337 339 348 349 4 19 50 85 98 102 103 104 102 102 106 108 106 103 98 93 84 83 85
200 174 150 139 252 279 291 304 309 253 284 309 275 296 315 328 341 336 344 338 318 317 321 306 330 40 49 69 94 100 96 98 101 104 106 109 114 116 110 104 98 96 96 81
71 125 143 146 182 246 265 293 304 238 287 320 331 309 313 340 324 303 334 342 343 358 7 8 39 68 70 60 96 101 98 97 106 115 111 107 111 118 120 114 101 93 102 102
12 17 194 204 227 265 275 299 333 168 258 305 310 314 313 281 257 285 328 345 357 4 6 18 55 65 51 60 93 101 99 104 114 107 103 99 102 113 117 105 98 102 100 88
198 197 210 182 211 256 296 29 176 232 268 290 285 281 293 293 312 328 342 353 1 7 9 26 53 45 35 57 100 104 101 90 90 96 96 92 91 96 103 104 94 97 115 109
209 203 202 202 223 254 265 225 256 255 265 277 269 270 252 279 302 323 337 353 357 1 3 26 58 47 34 43 88 110 85 85 99 104 99 89 81 74 90 115 122 113 114 131
276 227 206 252 267 275 283 282 292 282 276 285 278 266 251 255 267 297 325 350 358 0 9 24 54 46 27 33 56 65 52 72 98 107 106 100 95 78 64 75 103 127 165 203
243 220 234 257 275 293 283 278 274 286 301 302 300 279 245 231 250 269 296 317 336 348 353 20 51 34 15 27 38 34 39 76 94 95 92 96 97 101 74 53 57 193 233 235
227 208 214 243 249 244 268 277 272 275 276 270 271 280 275 244 248 269 291 310 322 329 341 11 26 32 12 20 20 17 32 77 104 98 90 90 113 116 120 53 10 9 332 322
Height
1480 1484 1484 1483 1482 1483 1484 1486 1486 1482 1477 1478 1478 1477 1473 1471 1472 1473 1474 1474 1475 1477 1480 1484 1487 1490 1494 1497 1500 1503 1506 1509 1512 1515 1517 1520 1523 1526 1528 1531 1532 1534 1536 1537
1484 1483 1480 1480 1480 1481 1482 1484 1484 1480 1476 1477 1477 1475 1471 1469 1469 1469 1470 1471 1472 1474 1477 1480 1483 1486 1489 1493 1496 1500 1503 1506 1509 1512 1515 1518 1520 1523 1525 1528 1530 1532 1533 1535
1482 1480 1478 1479 1480 1480 1481 1482 1482 1481 1477 1475 1478 1476 1470 1466 1465 1465 1465 1467 1468 1470 1472 1476 1479 1482 1485 1488 1492 1495 1499 1502 1505 1509 1512 1515 1518 1520 1522 1524 1526 1528 1530 1532
1481 1478 1478 1478 1478 1479 1481 1477 1478 1478 1482 1483 1480 1485 1472 1467 1464 1462 1462 1463 1464 1466 1469 1471 1475 1478 1481 1484 1488 1491 1495 1498 1502 1505 1508 1510 1512 1515 1517 1520 1523 1525 1527 1529
1481 1478 1477 1477 1476 1477 1477 1474 1476 1477 1481 1484 1481 1485 1475 1467 1465 1462 1461 1461 1461 1463 1465 1467 1470 1474 1477 1481 1484 1488 1491 1495 1498 1501 1504 1507 1510 1512 1515 1518 1520 1522 1524 1526
1480 1478 1477 1476 1475 1475 1475 1475 1476 1479 1483 1486 1480 1482 1477 1470 1464 1461 1459 1459 1459 1460 1463 1465 1467 1471 1474 1478 1481 1484 1487 1491 1494 1497 1500 1503 1506 1509 1511 1514 1516 1518 1521 1522
1483 1478 1476 1476 1476 1475 1476 1481 1488 1489 1489 1484 1476 1477 1474 1466 1462 1460 1458 1457 1457 1458 1460 1461 1464 1467 1470 1474 1478 1481 1484 1487 1490 1494 1497 1500 1503 1505 1508 1510 1512 1515 1516 1518
1489 1485 1478 1476 1476 1476 1477 1479 1487 1490 1488 1483 1476 1476 1471 1465 1461 1458 1457 1456 1456 1457 1457 1459 1461 1464 1467 1470 1474 1477 1480 1483 1487 1490 1493 1497 1499 1502 1504 1507 1509 1511 1513 1515
1490 1485 1476 1474 1473 1475 1476 1479 1478 1484 1486 1486 1481 1475 1468 1463 1460 1459 1457 1456 1455 1456 1457 1458 1460 1462 1464 1467 1470 1474 1477 1480 1483 1486 1490 1493 1496 1498 1500 1503 1505 1507 1509 1511
1489 1487 1479 1475 1473 1474 1475 1476 1480 1484 1486 1485 1480 1477 1475 1468 1464 1462 1460 1458 1457 1456 1457 1458 1459 1460 1463 1465 1468 1471 1474 1477 1480 1483 1486 1489 1492 1495 1497 1499 1502 1504 1506 1508
1488 1489 1483 1479 1477 1477 1477 1478 1479 1481 1481 1482 1482 1480 1472 1470 1467 1465 1463 1461 1459 1458 1458 1458 1459 1460 1462 1463 1466 1468 1472 1474 1477 1480 1483 1486 1489 1492 1494 1496 1498 1501 1502 1504
1488 1489 1488 1483 1478 1475 1476 1478 1480 1482 1484 1483 1483 1483 1471 1469 1467 1465 1464 1462 1460 1459 1459 1458 1458 1459 1461 1462 1465 1467 1469 1472 1475 1478 1480 1483 1486 1489 1491 1493 1495 1497 1499 1501
1488 1490 1490 1485 1483 1480 1480 1480 1479 1481 1484 1486 1485 1482 1471 1469 1468 1466 1465 1463 1462 1460 1459 1459 1458 1459 1460 1462 1464 1466 1467 1470 1472 1475 1478 1480 1483 1485 1487 1490 1492 1494 1496 1497
1488 1493 1493 1490 1486 1486 1485 1482 1480 1481 1485 1486 1483 1479 1474 1471 1470 1468 1466 1465 1463 1462 1460 1459 1459 1459 1461 1462 1463 1465 1466 1468 1470 1473 1475 1478 1480 1483 1485 1487 1489 1491 1493 1495
1490 1495 1492 1488 1486 1486 1485 1483 1481 1481 1482 1483 1481 1478 1475 1473 1472 1470 1467 1465 1464 1462 1461 1460 1460 1460 1460 1461 1462 1464 1465 1467 1469 1471 1474 1476 1478 1480 1482 1485 1487 1489 1491 1492
1493 1494 1492 1488 1484 1483 1483 1482 1481 1480 1480 1480 1479 1478 1475 1473 1471 1470 1468 1466 1464 1463 1462 1461 1460 1459 1460 1461 1462 1463 1464 1465 1468 1470 1472 1474 1476 1478 1480 1483 1485 1486 1488 1489
1495 1495 1494 1491 1486 1483 1486 1483 1481 1480 1479 1478 1478 1477 1474 1473 1471 1470 1468 1466 1465 1464 1462 1461 1461 1460 1460 1461 1461 1462 1463 1465 1467 1469 1471 1473 1475 1476 1479 1481 1483 1484 1485 1486
1494 1495 1497 1495 1492 1496 1487 1481 1479 1478 1477 1477 1475 1474 1473 1472 1471 1469 1468 1466 1465 1464 1463 1462 1461 1461 1461 1461 1462 1462 1463 1465 1467 1468 1469 1471 1473 1475 1477 1479 1480 1482 1483 1483
1490 1492 1497 1499 1500 1493 1484 1481 1480 1479 1478 1476 1475 1474 1473 1472 1470 1469 1468 1467 1465 1463 1462 1461 1461 1461 1461 1461 1461 1462 1463 1464 1466 1467 1468 1470 1472 1473 1475 1477 1478 1479 1480 1481
1490 1491 1497 1500 1499 1494 1485 1480 1478 1480 1480 1477 1475 1474 1473 1471 1472 1470 1468 1466 1464 1462 1461 1461 1461 1460 1460 1461 1461 1461 1462 1463 1465 1466 1467 1469 1471 1472 1473 1474 1475 1476 1477 1478
1497 1497 1499 1500 1500 1491 1484 1479 1478 1483 1481 1476 1474 1473 1472 1472 1471 1469 1467 1465 1463 1462 1461 1460 1460 1459 1460 1460 1461 1461 1462 1463 1464 1466 1467 1468 1469 1470 1471 1472 1473 1474 1475 1475
1499 1500 1500 1499 1498 1492 1480 1479 1481 1480 1476 1475 1473 1472 1471 1470 1469 1467 1465 1464 1462 1461 1460 1459 1459 1458 1459 1459 1460 1460 1461 1462 1464 1465 1466 1466 1468 1469 1469 1470 1471 1471 1472 1472
1496 1494 1493 1493 1489 1482 1479 1478 1477 1476 1475 1473 1471 1470 1469 1468 1467 1466 1464 1463 1461 1460 1459 1458 1458 1457 1458 1459 1459 1459 1460 1461 1462 1463 1464 1464 1466 1466 1467 1467 1468 1468 1469 1469
1491 1488 1489 1487 1482 1479 1478 1476 1476 1475 1473 1471 1470 1469 1468 1466 1465 1464 1463 1461 1460 1459 1458 1457 1457 1457 1457 1458 1458 1458 1459 1460 1460 1461 1462 1462 1463 1463 1464 1464 1465 1465 1465 1465
1488 1486 1486 1483 1479 1477 1475 1474 1473 1472 1471 1469 1468 1467 1465 1464 1463 1462 1461 1460 1459 1458 1457 1457 1456 1456 1456 1456 1457 1457 1458 1458 1458 1459 1459 1460 1461 1461 1461 1462 1462 1462 1462 1462
1482 1483 1483 1479 1476 1476 1473 1472 1471 1470 1468 1467 1465 1464 1463 1462 1461 1460 1459 1458 1457 1457 1456 1456 1455 1455 1455 1455 1455 1456 1456 1456 1456 1457 1457 1457 1458 1458 1458 1459 1459 1459 1460 1459